Location: Brivio
(45.7333°N, 9.4500°E)
Time: 09:33:07
(UTC+00:00)

Cosmos 2058 Rocket - Pass Details

Date: 18 October 2019
Orbit: 611 x 639 km, 82.5° (Epoch: 14 November)

Event Time Altitude Azimuth Distance (km) Brightness Sun altitude
Rises 17:15:23 0° 176° (S) 2,868 6.5 -8.3°
Reaches altitude 10° 17:17:38 10° 172° (S) 1,965 5.6 -8.7°
Maximum altitude 17:21:53 56° 95° (E) 729 3.1 -9.4°
Drops below altitude 10° 17:26:10 10° 17° (NNE) 1,978 5.4 -10.2°
Sets 17:28:25 0° 13° (NNE) 2,888 6.3 -10.6°
